Location: Demmingen
(48.6757°N, 10.4375°E)
Time: 23:06:52
(UTC+00:00)

Cosmos 2360 Rocket - Pass Details

Date: 23 May 2024
Orbit: 832 x 846 km, 71.0° (Epoch: 14 June)

Event Time Altitude Azimuth Distance (km) Brightness Sun altitude
Rises 00:13:45 0° 335° (NNW) 3,416 6.2 -19.5°
Reaches altitude 10° 00:16:33 10° 347° (NNW) 2,478 5.5 -19.3°
Maximum altitude 00:21:26 28° 46° (NE) 1,529 4.1 -19.1°
Drops below altitude 10° 00:26:18 10° 105° (ESE) 2,468 4.6 -18.9°
Sets 00:29:05 0° 117° (ESE) 3,399 5.3 -18.7°
